星链-34402 (STARLINK-34402)

导读

STARLINK-34402是美国SpaceX星链互联网星座中的一颗卫星,于2025年6月18日发射入轨。星链项目旨在构建全球卫星互联网星座,为全球偏远地区、海洋、空中等区域提供高速低延迟互联网接入服务,这颗卫星进一步扩充了星链星座的组网规模,提升了星座覆盖与服务能力。

基本信息
目录编号:
64446
目录名称:
STARLINK-34402
国际标识:
2025-130J
轨道中心:
EARTH
卫星名称:
星链-34402
卫星全名:
星链-34402 (STARLINK-34402)
卫星状态:
在轨 (已飞行444 天)
发射日期:
2025-06-18 UTC
国别 :
美国 (US)
星等 :
--
轨道信息
数据来源 国际轨道数据
星历时间: 2026-09-05T06:44:56+0800
9小时前
查看轨道信息
半长轴: 6840.85km
偏心率: 0.0000733
轨道倾角: 53.158°
近地点辐角 89.986°
升交点赤经 334.111°
平近点角 270.123°
近地点: 462.211km
远地点: 463.215km
周期: 93.848分钟
每日圈数: 15.343969
详细信息
固有亮度:
5
最大亮度:
2.5
卫星平台:
Starlink V1.0
覆盖范围:
全球
运营商:
太空探索技术公司
运营商所在国:
美国
制造商(研发单位):
太空探索技术公司
制造商所在国:
美国
使用方式:
暂无
卫星简介
Starlink 计划是 SpaceX 推出的全球卫星互联网项目,通过发射低轨道卫星,为全球尤其是偏远地区提供高速、低延迟的互联网服务。自 2019 年起,Starlink 已部署数千颗卫星,旨在缩小全球数字鸿沟,推动互联网普及。该项目还为军事、航空等行业提供通信支持,带来广泛经济效益。
2D轨道图
3D轨道图
轨道高度分析图
轨道倾角分析图
轨道综合分析图
查看轨道综合分析图
交会数据列表
事件ID 空间交会对象 最接近时刻(TCA) 交会距离 交会风险概率(CRP) 交会风险指数(CRI) 操作
CDM_260907-125605-341406-444621
2026-09-07T
12:56:53+0000
0.289 km
中距离
3.305228E-4 高风险 0.85
CDM_260907-172805-189706-444621
2026-09-07T
17:28:08+0000
1.169 km
极远距离
9.630411E-6 低风险 0.55
CDM_260907-055405-341406-444621
2026-09-07T
05:54:49+0000
1.145 km
极远距离
7.746112E-6 低风险 0.53
CDM_260907-072805-341406-444621
2026-09-07T
07:28:37+0000
1.754 km
极远距离
2.005209E-6 低风险 0.41
CDM_260907-190105-189706-444621
2026-09-07T
19:01:56+0000
1.953 km
极远距离
1.960394E-6 低风险 0.41
CDM_260907-143005-341406-444621
2026-09-07T
14:30:41+0000
2.749 km
极远距离
7.97234E-7 极低风险 0.33